period_start,C,m1,H,J0,J1,J2,J3,J4,J5,JA,JB,JC,JD,JJ,JK,JN,#
2014-06-19 00:02:05,0.00,1.25,0.00,22.72,26.95,29.58,9.56,39.46,1015.15,2040.92,2942.87,2979.95,3213.99,500.14,496.54,38.49,0000 0000 0000 0000 000000
2014-06-19 00:07:07,0.02,1.25,0.00,22.72,26.95,29.55,9.55,39.39,1015.15,2040.88,2942.49,2979.61,3213.87,499.96,496.38,38.53,0000 0000 0000 0000 000000
2014-06-19 00:12:08,0.02,1.25,0.00,22.76,26.96,29.53,9.61,39.40,1015.14,2040.77,2942.03,2979.08,3213.28,500.13,496.38,38.58,0000 0000 0000 0000 000000
2014-06-19 00:17:09,-0.01,1.25,0.00,22.73,26.97,29.50,9.59,39.37,1014.97,2040.54,2941.99,2979.00,3213.01,500.17,496.55,38.62,0000 0000 0000 0000 000000
2014-06-19 00:22:10,-0.01,1.25,0.00,22.73,26.97,29.49,9.52,39.38,1014.75,2040.39,2941.80,2979.00,3213.00,499.57,495.81,38.66,0000 0000 0000 0000 000000
2014-06-19 00:27:11,0.03,1.25,0.00,22.74,26.99,29.50,9.56,39.42,1014.70,2040.44,2941.22,2978.91,3212.89,499.96,496.15,38.70,0000 0000 0000 0000 000000
2014-06-19 00:32:12,0.01,1.25,0.00,22.75,27.00,29.52,9.60,39.46,1014.78,2040.38,2941.01,2978.54,3212.51,500.25,496.42,38.74,0000 0000 0000 0000 000000
2014-06-19 00:37:13,0.01,1.25,0.00,22.75,27.00,29.53,9.59,39.33,1015.11,2040.28,2940.89,2978.05,3212.06,500.30,496.74,38.78,0000 0000 0000 0000 000000
2014-06-19 00:42:14,-0.00,1.25,0.00,22.72,27.02,29.50,9.60,39.42,1015.09,2040.07,2940.18,2978.00,3211.99,500.27,496.69,38.83,0000 0000 0000 0000 000000
2014-06-19 00:47:16,0.01,1.25,0.00,22.68,27.02,29.48,9.54,39.38,1014.81,2040.04,2940.00,2977.94,3211.80,500.01,496.20,38.87,0000 0000 0000 0000 000000
2014-06-19 00:52:17,0.04,1.25,0.00,22.69,27.03,29.49,9.56,39.57,1014.76,2040.01,2939.78,2977.26,3211.09,500.05,496.25,38.91,0000 0000 0000 0000 000000
2014-06-19 00:57:17,0.01,1.25,0.00,22.68,27.05,29.48,9.56,39.37,1014.68,2040.00,2939.10,2977.02,3211.00,500.09,496.47,38.95,0000 0000 0000 0000 000000
2014-06-19 01:02:18,0.00,1.25,0.00,22.74,27.05,29.50,9.57,39.47,1014.66,2040.01,2939.00,2977.00,3210.98,500.23,496.27,38.99,0000 0000 0000 0000 000000
2014-06-19 01:07:20,0.01,1.25,0.00,22.72,27.05,29.48,9.51,39.53,1014.66,2040.00,2938.96,2976.99,3210.65,500.25,496.46,39.03,0000 0000 0000 0000 000000
2014-06-19 01:12:21,0.02,1.25,0.00,22.67,27.07,29.47,9.53,39.49,1014.66,2040.01,2938.68,2976.81,3210.16,499.86,496.37,39.07,0000 0000 0000 0000 000000
2014-06-19 01:17:22,0.04,1.26,0.00,22.70,27.07,29.49,9.59,39.44,1014.64,2040.00,2938.03,2976.08,3210.00,499.89,496.15,39.12,0000 0000 0000 0000 000000
2014-06-19 01:22:23,0.00,1.26,0.00,22.72,27.07,29.53,9.66,39.48,1014.64,2040.00,2937.98,2976.00,3209.97,500.22,496.48,39.16,0000 0000 0000 0000 000000
2014-06-19 01:27:24,0.01,1.26,0.00,22.70,27.08,29.53,9.50,39.47,1014.45,2040.00,2937.56,2976.00,3209.72,499.61,495.74,39.20,0000 0000 0000 0000 000000
2014-06-19 01:32:25,0.03,1.26,0.00,22.71,27.10,29.55,9.61,39.45,1014.26,2040.00,2937.08,2975.97,3209.11,500.16,496.20,39.24,0000 0000 0000 0000 000000
2014-06-19 01:37:26,0.02,1.26,0.00,22.72,27.10,29.56,9.58,39.51,1014.41,2040.00,2936.99,2975.57,3209.00,500.04,495.95,39.28,0000 0000 0000 0000 000000
2014-06-19 01:42:27,0.01,1.26,0.00,22.73,27.10,29.53,9.51,39.36,1014.20,2040.00,2936.73,2975.09,3208.97,499.78,495.86,39.32,0000 0000 0000 0000 000000
2014-06-19 01:47:28,0.03,1.26,0.00,22.74,27.12,29.54,9.57,39.38,1014.35,2040.00,2936.15,2975.00,3208.56,500.09,496.04,39.36,0000 0000 0000 0000 000000
2014-06-19 01:52:29,0.01,1.26,0.00,22.78,27.12,29.55,9.64,39.61,1014.46,2040.00,2935.98,2974.96,3208.04,499.74,495.56,39.41,0000 0000 0000 0000 000000
2014-06-19 01:57:30,0.03,1.26,0.00,22.79,27.13,29.54,9.48,39.52,1014.26,2039.99,2935.73,2974.39,3208.00,499.62,495.49,39.45,0000 0000 0000 0000 000000
2014-06-19 02:02:31,0.02,1.26,0.00,22.82,27.15,29.54,9.52,39.62,1014.27,2039.99,2935.13,2974.04,3207.90,499.83,495.59,39.49,0000 0000 0000 0000 000000
2014-06-19 02:07:32,0.01,1.26,0.00,22.84,27.15,29.53,9.56,39.52,1014.23,2039.98,2935.02,2973.99,3207.42,499.92,495.72,39.53,0000 0000 0000 0000 000000
2014-06-19 02:12:33,0.01,1.26,0.00,22.89,27.16,29.53,9.59,39.80,1014.48,2039.98,2934.86,2973.95,3207.05,500.11,495.95,39.57,0000 0000 0000 0000 000000
2014-06-19 02:17:34,0.04,1.26,0.00,22.91,27.17,29.54,9.58,39.83,1014.42,2039.99,2934.38,2973.52,3206.99,500.19,495.78,39.61,0000 0000 0000 0000 000000
2014-06-19 02:22:35,0.01,1.27,0.00,22.93,27.17,29.54,9.58,39.66,1014.19,2039.93,2934.01,2973.03,3206.60,500.20,495.81,39.66,0000 0000 0000 0000 000000
2014-06-19 02:27:36,0.00,1.27,0.00,22.98,27.19,29.55,9.46,39.65,1014.20,2039.83,2933.77,2972.99,3206.03,499.59,494.97,39.70,0000 0000 0000 0000 000000
2014-06-19 02:32:37,0.02,1.27,0.00,23.02,27.20,29.54,9.45,39.71,1014.24,2039.82,2933.12,2972.73,3205.99,499.61,495.10,39.74,0000 0000 0000 0000 000000
2014-06-19 02:37:38,0.00,1.27,0.00,23.07,27.20,29.56,9.61,39.67,1014.21,2039.59,2932.82,2972.07,3205.42,500.14,495.58,39.78,0000 0000 0000 0000 000000
2014-06-19 02:42:39,0.01,1.27,0.00,23.11,27.22,29.57,9.52,39.50,1014.29,2039.50,2932.10,2972.00,3205.01,500.10,495.48,39.82,0000 0000 0000 0000 000000
2014-06-19 02:47:41,0.01,1.27,0.00,23.13,27.23,29.58,9.51,39.52,1014.52,2039.33,2931.90,2971.73,3204.83,499.53,494.95,39.86,0000 0000 0000 0000 000000
2014-06-19 02:52:42,0.03,1.27,0.00,23.17,27.25,29.60,9.51,39.67,1014.66,2039.20,2931.45,2971.12,3204.20,499.65,495.23,39.90,0000 0000 0000 0000 000000
2014-06-19 02:57:43,0.00,1.27,0.00,23.21,27.26,29.62,9.47,39.68,1014.66,2039.06,2931.06,2971.00,3204.01,499.56,495.11,39.95,0000 0000 0000 0000 000000
2014-06-19 03:02:44,0.01,1.27,0.00,23.24,27.27,29.63,9.50,39.60,1014.85,2039.01,2930.93,2970.77,3203.81,499.80,495.46,39.99,0000 0000 0000 0000 000000
2014-06-19 03:07:46,0.04,1.27,0.00,23.27,27.30,29.65,9.57,39.66,1015.15,2039.00,2930.45,2970.11,3203.11,499.83,495.40,40.03,0000 0000 0000 0000 000000
2014-06-19 03:12:47,0.01,1.27,0.00,23.30,27.32,29.67,9.51,39.79,1015.15,2039.00,2930.06,2970.01,3203.01,500.03,495.53,40.07,0000 0000 0000 0000 000000
2014-06-19 03:17:48,0.00,1.27,0.00,23.34,27.33,29.69,9.56,39.87,1015.15,2039.00,2930.01,2969.97,3202.97,500.14,495.50,40.11,0000 0000 0000 0000 000000
2014-06-19 03:22:49,0.04,1.27,0.00,23.36,27.35,29.72,9.63,39.76,1014.90,2039.00,2929.92,2969.41,3202.42,500.41,495.55,40.15,0000 0000 0000 0000 000000
2014-06-19 03:27:50,0.03,1.28,0.00,23.39,27.37,29.74,9.59,39.93,1014.93,2038.98,2929.13,2969.03,3202.02,500.29,495.64,40.20,0000 0000 0000 0000 000000
2014-06-19 03:32:51,-0.00,1.28,0.00,23.42,27.39,29.76,9.52,39.77,1015.23,2038.95,2928.99,2968.98,3201.94,500.19,495.53,40.24,0000 0000 0000 0000 000000
2014-06-19 03:37:53,0.04,1.28,0.00,23.45,27.40,29.78,9.53,39.73,1015.60,2038.87,2928.42,2968.53,3201.23,499.87,495.28,40.28,0000 0000 0000 0000 000000
2014-06-19 03:42:54,-0.01,1.28,0.00,23.47,27.42,29.80,9.49,39.67,1015.17,2038.65,2928.00,2968.05,3201.00,499.94,495.11,40.32,0000 0000 0000 0000 000000
2014-06-19 03:47:55,-0.01,1.28,0.00,23.47,27.44,29.83,9.57,39.68,1015.16,2038.53,2927.84,2968.00,3200.89,499.92,495.17,40.36,0000 0000 0000 0000 000000
2014-06-19 03:52:56,0.01,1.28,0.00,23.48,27.46,29.85,9.48,39.59,1015.16,2038.10,2927.10,2967.58,3200.15,499.72,494.81,40.40,0000 0000 0000 0000 000000
2014-06-19 03:57:57,0.03,1.28,0.00,23.50,27.47,29.87,9.56,39.61,1014.82,2038.04,2926.42,2967.04,3199.78,500.29,495.31,40.45,0000 0000 0000 0000 000000
2014-06-19 04:02:58,0.01,1.28,0.00,23.52,27.50,29.89,9.48,39.54,1014.71,2038.02,2925.96,2966.93,3199.05,499.81,494.82,40.49,0000 0000 0000 0000 000000
2014-06-19 04:08:00,0.04,1.28,0.00,23.53,27.51,29.92,9.52,39.58,1014.22,2038.04,2925.21,2966.20,3198.99,499.92,494.57,40.53,0000 0000 0000 0000 000000
2014-06-19 04:13:01,0.01,1.28,0.00,23.53,27.53,29.94,9.48,39.51,1013.65,2038.03,2924.95,2966.00,3198.64,499.61,494.13,40.57,0000 0000 0000 0000 000000
2014-06-19 04:18:02,0.04,1.28,0.00,23.52,27.55,29.96,9.53,39.49,1013.69,2038.01,2924.09,2965.70,3198.02,499.57,493.96,40.61,0000 0000 0000 0000 000000
2014-06-19 04:23:03,0.05,1.29,0.00,23.54,27.57,29.99,9.57,39.52,1014.31,2038.00,2923.19,2965.05,3197.27,499.88,494.46,40.65,0000 0000 0000 0000 000000
2014-06-19 04:28:04,0.01,1.29,0.00,23.58,27.59,30.00,9.47,39.45,1014.52,2038.01,2922.88,2964.96,3196.99,499.84,494.80,40.69,0000 0000 0000 0000 000000
2014-06-19 04:33:05,0.06,1.29,0.00,23.58,27.61,30.02,9.51,39.85,1013.97,2038.00,2922.13,2964.27,3196.50,500.16,494.56,40.74,0000 0000 0000 0000 000000
2014-06-19 04:38:06,0.02,1.29,0.00,23.58,27.62,30.04,9.60,39.74,1013.29,2038.00,2921.42,2964.00,3195.94,500.70,494.73,40.78,0000 0000 0000 0000 000000
2014-06-19 04:43:07,0.04,1.29,0.00,23.60,27.65,30.06,9.53,39.95,1013.23,2038.01,2920.93,2963.60,3195.28,500.06,494.00,40.82,0000 0000 0000 0000 000000
2014-06-19 04:48:08,0.02,1.29,0.00,23.60,27.66,30.08,9.56,39.91,1013.24,2038.00,2920.73,2963.04,3195.01,500.14,494.27,40.86,0000 0000 0000 0000 000000
2014-06-19 04:53:09,0.02,1.29,0.00,23.61,27.68,30.10,9.61,40.02,1013.95,2037.99,2920.01,2962.95,3194.57,499.92,494.15,40.90,0000 0000 0000 0000 000000
2014-06-19 04:58:10,0.05,1.30,0.00,23.61,27.70,30.12,9.59,39.83,1013.82,2037.99,2919.36,2962.24,3194.01,500.00,494.24,40.94,0000 0000 0000 0000 000000
2014-06-19 05:03:12,0.02,1.30,0.00,23.61,27.72,30.13,9.61,39.78,1013.22,2037.99,2918.94,2962.00,3193.68,500.05,494.03,40.99,0000 0000 0000 0000 000000
2014-06-19 05:08:13,0.03,1.30,0.00,23.63,27.73,30.15,9.50,39.78,1012.91,2037.99,2918.73,2961.69,3193.10,500.00,493.89,41.03,0000 0000 0000 0000 000000
2014-06-19 05:13:14,0.05,1.30,0.00,23.64,27.75,30.17,9.61,39.79,1012.71,2037.99,2917.83,2961.03,3192.71,500.31,493.82,41.07,0000 0000 0000 0000 000000
2014-06-19 05:18:14,0.04,1.30,0.00,23.63,27.77,30.18,9.63,39.65,1012.72,2037.99,2916.98,2960.73,3192.02,500.55,494.23,41.11,0000 0000 0000 0000 000000
2014-06-19 05:23:16,0.03,1.30,0.00,23.65,27.78,30.20,9.56,39.80,1012.56,2037.97,2916.77,2960.14,3191.83,500.09,493.75,41.15,0000 0000 0000 0000 000000
2014-06-19 05:28:17,0.05,1.31,0.00,23.65,27.80,30.21,9.57,39.55,1011.91,2037.98,2915.72,2959.87,3190.94,500.05,493.23,41.19,0000 0000 0000 0000 000000
2014-06-19 05:33:18,0.04,1.31,0.00,23.66,27.81,30.22,9.53,39.42,1011.73,2037.98,2915.02,2959.10,3190.28,499.89,493.11,41.24,0000 0000 0000 0000 000000
2014-06-19 05:38:19,0.00,1.31,0.00,23.67,27.82,30.24,9.48,39.18,1011.71,2037.95,2915.00,2958.99,3190.02,500.04,493.32,41.28,0000 0000 0000 0000 000000
2014-06-19 05:43:20,0.01,1.31,0.00,23.68,27.85,30.26,9.49,39.21,1011.76,2037.91,2914.83,2958.54,3189.91,500.01,493.30,41.32,0000 0000 0000 0000 000000
2014-06-19 05:48:21,0.01,1.31,0.00,23.69,27.86,30.27,9.43,39.15,1011.82,2037.65,2914.18,2958.02,3189.17,499.79,492.90,41.36,0000 0000 0000 0000 000000
2014-06-19 05:53:22,-0.04,1.31,0.00,23.72,27.87,30.28,9.48,39.24,1012.18,2037.25,2913.98,2957.88,3188.99,499.63,493.04,41.40,0000 0000 0000 0000 000000
2014-06-19 05:58:24,0.03,1.31,0.00,23.72,27.90,30.29,9.63,39.47,1012.57,2037.06,2913.87,2957.20,3188.78,500.55,494.20,41.44,0000 0000 0000 0000 000000
2014-06-19 06:03:25,0.02,1.31,0.00,23.75,27.91,30.30,9.54,39.22,1012.76,2037.06,2913.23,2957.00,3188.10,500.02,493.45,41.48,0000 0000 0000 0000 000000
2014-06-19 06:08:26,0.03,1.31,0.00,23.75,27.93,30.32,9.62,39.47,1013.17,2037.01,2912.83,2956.61,3187.85,500.33,493.84,41.53,0000 0000 0000 0000 000000
2014-06-19 06:13:27,0.04,1.31,0.00,23.77,27.95,30.33,9.51,39.44,1012.68,2037.00,2912.22,2956.02,3187.13,500.03,493.49,41.57,0000 0000 0000 0000 000000
2014-06-19 06:18:28,0.01,1.31,0.00,23.78,27.96,30.35,9.53,39.47,1011.91,2037.00,2912.02,2955.98,3186.99,500.25,493.38,41.61,0000 0000 0000 0000 000000
2014-06-19 06:23:29,0.03,1.32,0.00,23.78,27.97,30.36,9.46,39.51,1012.15,2037.00,2911.54,2955.44,3186.58,500.07,493.22,41.65,0000 0000 0000 0000 000000
2014-06-19 06:28:31,0.04,1.32,0.00,23.81,28.00,30.37,9.46,39.24,1012.22,2037.00,2911.20,2955.02,3186.14,499.61,492.79,41.69,0000 0000 0000 0000 000000
2014-06-19 06:33:32,-0.01,1.32,0.00,23.82,28.01,30.38,9.39,39.74,1012.36,2036.96,2911.49,2954.97,3186.00,499.49,492.69,41.73,0000 0000 0000 0000 000000
2014-06-19 06:38:33,0.04,1.32,0.00,23.84,28.02,30.40,9.47,39.71,1013.25,2036.91,2910.92,2954.41,3185.76,499.79,493.32,41.78,0000 0000 0000 0000 000000
2014-06-19 06:43:34,0.03,1.32,0.00,23.84,28.03,30.41,9.50,39.67,1012.91,2036.88,2910.24,2954.02,3185.07,500.05,493.40,41.82,0000 0000 0000 0000 000000
2014-06-19 06:48:35,-0.02,1.32,0.00,23.84,28.05,30.43,9.43,39.58,1012.19,2036.60,2909.94,2953.95,3184.96,499.69,492.79,41.86,0000 0000 0000 0000 000000
2014-06-19 06:53:36,0.02,1.32,0.00,23.86,28.06,30.44,9.59,39.62,1012.26,2036.33,2909.42,2953.35,3184.38,500.29,493.36,41.90,0000 0000 0000 0000 000000
2014-06-19 06:58:37,-0.00,1.32,0.00,23.85,28.07,30.45,9.51,39.55,1012.22,2036.07,2909.02,2953.01,3184.01,500.13,493.16,41.94,0000 0000 0000 0000 000000
2014-06-19 07:03:38,0.02,1.32,0.00,23.84,28.07,30.47,9.49,39.63,1012.23,2036.02,2908.75,2952.90,3183.82,499.90,493.03,41.98,0000 0000 0000 0000 000000
2014-06-19 07:08:39,0.04,1.32,0.00,23.88,28.10,30.48,9.55,39.87,1012.22,2036.01,2908.09,2952.17,3183.14,499.99,493.11,42.02,0000 0000 0000 0000 000000
2014-06-19 07:13:40,0.00,1.32,0.00,23.87,28.10,30.49,9.50,39.74,1012.22,2036.00,2907.96,2952.01,3183.00,499.95,493.13,42.07,0000 0000 0000 0000 000000
2014-06-19 07:18:41,0.00,1.32,0.00,23.88,28.11,30.50,9.57,39.75,1012.22,2036.00,2907.89,2951.98,3182.97,500.34,493.49,42.11,0000 0000 0000 0000 000000
2014-06-19 07:23:42,0.04,1.32,0.00,23.88,28.12,30.50,9.57,39.75,1012.22,2036.00,2907.57,2951.70,3182.55,500.17,493.31,42.15,0000 0000 0000 0000 000000
2014-06-19 07:28:43,0.03,1.33,0.00,23.92,28.12,30.51,9.53,39.79,1012.12,2036.00,2907.02,2951.11,3182.03,500.03,493.01,42.19,0000 0000 0000 0000 000000
2014-06-19 07:33:44,0.01,1.33,0.00,23.93,28.13,30.52,9.51,39.75,1011.84,2035.99,2906.51,2951.00,3181.91,499.68,492.50,42.23,0000 0000 0000 0000 000000
2014-06-19 07:38:45,0.03,1.33,0.00,23.95,28.15,30.54,9.50,39.44,1011.73,2035.99,2905.97,2950.82,3181.17,500.30,492.99,42.27,0000 0000 0000 0000 000000
2014-06-19 07:43:46,0.03,1.33,0.00,23.95,28.15,30.54,9.52,39.78,1011.75,2035.98,2905.59,2950.14,3180.99,499.92,492.81,42.32,0000 0000 0000 0000 000000
2014-06-19 07:48:48,0.02,1.33,0.00,23.95,28.15,30.56,9.55,39.46,1011.74,2035.98,2905.22,2950.01,3180.73,500.11,492.78,42.36,0000 0000 0000 0000 000000
2014-06-19 07:53:49,0.03,1.33,0.00,23.99,28.17,30.56,9.45,39.24,1011.73,2035.97,2904.65,2949.87,3180.06,499.72,492.39,42.40,0000 0000 0000 0000 000000
2014-06-19 07:58:50,0.06,1.33,0.00,24.00,28.17,30.57,9.46,39.05,1011.73,2035.98,2903.60,2949.14,3179.63,499.83,492.48,42.44,0000 0000 0000 0000 000000
2014-06-19 08:03:51,0.01,1.34,0.00,24.03,28.17,30.59,9.43,39.21,1011.76,2035.98,2903.15,2949.00,3179.06,500.07,492.80,42.48,0000 0000 0000 0000 000000
2014-06-19 08:08:53,0.01,1.34,0.00,24.07,28.19,30.59,9.50,39.33,1011.77,2035.96,2902.88,2948.80,3178.97,500.04,492.63,42.52,0000 0000 0000 0000 000000
2014-06-19 08:13:54,0.01,1.34,0.00,24.07,28.20,30.60,9.50,39.44,1011.96,2035.94,2902.96,2948.16,3178.93,499.86,492.74,42.56,0000 0000 0000 0000 000000
2014-06-19 08:18:55,-0.01,1.34,0.00,24.08,28.22,30.61,9.54,39.70,1012.18,2035.81,2902.97,2948.01,3178.73,500.27,492.95,42.61,0000 0000 0000 0000 000000
2014-06-19 08:23:56,0.02,1.34,0.00,24.09,28.23,30.62,9.46,39.50,1012.12,2035.67,2902.27,2947.99,3178.04,500.01,492.79,42.65,0000 0000 0000 0000 000000
2014-06-19 08:28:58,0.00,1.34,0.00,24.10,28.25,30.64,9.55,39.32,1012.21,2035.52,2902.00,2947.71,3177.99,499.99,492.95,42.69,0000 0000 0000 0000 000000
2014-06-19 08:33:59,-0.01,1.34,0.00,24.14,28.26,30.65,9.50,39.27,1012.22,2035.17,2901.84,2947.12,3177.53,500.21,493.03,42.73,0000 0000 0000 0000 000000
2014-06-19 08:39:00,0.02,1.34,0.00,24.16,28.27,30.66,9.51,39.17,1012.22,2035.08,2901.07,2947.00,3177.02,500.07,492.77,42.77,0000 0000 0000 0000 000000
2014-06-19 08:44:01,0.01,1.34,0.00,24.17,28.29,30.67,9.44,39.52,1012.22,2035.07,2900.79,2946.85,3176.89,499.90,492.59,42.81,0000 0000 0000 0000 000000
2014-06-19 08:49:02,0.06,1.34,0.00,24.18,28.30,30.70,9.62,39.56,1012.13,2035.05,2900.06,2946.09,3176.11,500.23,492.66,42.86,0000 0000 0000 0000 000000
2014-06-19 08:54:03,0.00,1.34,0.00,24.21,28.32,30.71,9.71,39.63,1012.13,2035.01,2899.90,2946.00,3175.99,500.54,493.13,42.90,0000 0000 0000 0000 000000
2014-06-19 08:59:04,0.04,1.34,0.00,24.22,28.33,30.73,9.44,39.38,1012.20,2035.01,2899.16,2945.86,3175.59,500.28,492.56,42.94,0000 0000 0000 0000 000000
2014-06-19 09:04:05,0.03,1.34,0.00,24.23,28.35,30.74,9.47,39.17,1012.02,2035.00,2898.93,2945.17,3175.03,499.56,492.01,42.98,0000 0000 0000 0000 000000
2014-06-19 09:09:06,0.01,1.34,0.00,24.25,28.36,30.76,9.49,39.17,1011.78,2035.00,2898.27,2945.00,3174.98,500.15,492.47,43.02,0000 0000 0000 0000 000000
2014-06-19 09:14:07,0.01,1.35,0.00,24.27,28.37,30.77,9.54,39.09,1011.75,2035.00,2897.99,2944.97,3174.50,500.38,492.66,43.06,0000 0000 0000 0000 000000
2014-06-19 09:19:09,0.05,1.35,0.00,24.28,28.40,30.77,9.64,39.32,1011.76,2035.00,2897.17,2944.27,3174.00,500.34,492.55,43.11,0000 0000 0000 0000 000000
2014-06-19 09:24:10,0.01,1.35,0.00,24.30,28.41,30.78,9.50,39.42,1011.80,2035.00,2897.04,2944.01,3173.82,500.49,492.54,43.15,0000 0000 0000 0000 000000
2014-06-19 09:29:11,0.03,1.35,0.00,24.30,28.42,30.81,9.53,39.02,1011.75,2034.99,2896.49,2943.97,3173.08,500.27,492.38,43.19,0000 0000 0000 0000 000000
2014-06-19 09:34:13,0.04,1.35,0.00,24.31,28.45,30.82,9.38,38.92,1011.74,2034.99,2895.90,2943.36,3172.77,499.19,491.51,43.23,0000 0000 0000 0000 000000
2014-06-19 09:39:14,0.04,1.35,0.00,24.33,28.46,30.84,9.44,38.93,1011.73,2034.97,2895.02,2942.93,3172.02,499.68,491.73,43.27,0000 0000 0000 0000 000000
2014-06-19 09:44:15,0.06,1.36,0.00,24.33,28.48,30.86,9.55,38.94,1011.73,2034.98,2894.43,2942.19,3171.40,500.31,492.45,43.31,0000 0000 0000 0000 000000
2014-06-19 09:49:16,0.01,1.36,0.00,24.35,28.50,30.87,9.48,39.08,1011.73,2034.96,2893.84,2941.99,3170.97,499.92,491.91,43.35,0000 0000 0000 0000 000000
2014-06-19 09:54:17,0.06,1.36,0.00,24.40,28.52,30.88,9.47,39.07,1011.73,2034.98,2893.04,2941.50,3170.19,500.23,492.20,43.40,0000 0000 0000 0000 000000
2014-06-19 09:59:18,0.03,1.36,0.00,24.42,28.55,30.89,9.42,38.87,1011.73,2034.96,2892.27,2941.01,3169.92,499.86,491.75,43.44,0000 0000 0000 0000 000000
2014-06-19 10:04:19,0.01,1.36,0.00,24.45,28.56,30.90,9.49,38.99,1011.73,2034.86,2892.02,2940.76,3169.41,500.02,491.89,43.48,0000 0000 0000 0000 000000
2014-06-19 10:09:21,-0.01,1.36,0.00,24.50,28.59,30.93,9.45,38.83,1011.72,2034.47,2891.65,2940.05,3168.99,500.02,491.84,43.52,0000 0000 0000 0000 000000
2014-06-19 10:14:22,0.01,1.36,0.00,24.53,28.61,30.93,9.46,38.97,1011.72,2034.21,2890.95,2939.80,3168.32,499.58,491.51,43.56,0000 0000 0000 0000 000000
2014-06-19 10:19:23,0.04,1.36,0.00,24.57,28.64,30.95,9.44,38.54,1011.73,2034.05,2890.13,2939.05,3167.74,499.65,491.50,43.60,0000 0000 0000 0000 000000
2014-06-19 10:24:24,0.03,1.36,0.00,24.61,28.66,30.97,9.48,38.52,1011.73,2034.03,2889.73,2938.77,3167.03,499.56,491.29,43.65,0000 0000 0000 0000 000000
2014-06-19 10:29:25,0.03,1.37,0.00,24.66,28.69,30.98,9.44,38.88,1011.73,2034.01,2889.15,2938.06,3166.81,499.94,491.51,43.69,0000 0000 0000 0000 000000
2014-06-19 10:34:26,0.03,1.37,0.00,24.70,28.71,31.01,9.43,38.62,1011.73,2034.00,2888.78,2937.89,3166.08,499.55,491.10,43.73,0000 0000 0000 0000 000000
2014-06-19 10:39:26,0.05,1.37,0.00,24.75,28.75,31.02,9.43,38.72,1011.73,2034.00,2888.08,2937.11,3165.65,499.99,491.41,43.77,0000 0000 0000 0000 000000
2014-06-19 10:44:28,0.05,1.37,0.00,24.81,28.78,31.05,9.52,39.27,1011.73,2033.98,2887.39,2936.56,3164.99,500.24,491.54,43.81,0000 0000 0000 0000 000000
2014-06-19 10:49:29,0.09,1.37,0.00,24.87,28.81,31.08,9.38,38.46,1011.73,2033.89,2886.13,2935.43,3163.79,499.95,491.07,43.85,0000 0000 0000 0000 000000
2014-06-19 10:54:29,0.04,1.38,0.00,24.92,28.84,31.11,9.40,39.32,1011.73,2033.46,2884.53,2934.08,3162.33,499.53,490.80,43.89,0000 0000 0000 0000 000000
2014-06-19 10:59:31,0.02,1.38,0.00,24.98,28.87,31.14,9.38,39.48,1011.74,2033.06,2883.90,2933.22,3161.88,499.90,490.94,43.94,0000 0000 0000 0000 000000
2014-06-19 11:04:32,0.03,1.38,0.00,25.03,28.90,31.19,9.50,39.33,1011.74,2033.00,2883.44,2933.00,3161.18,500.35,491.40,43.98,0000 0000 0000 0000 000000
2014-06-19 11:09:34,0.02,1.38,0.00,25.07,28.93,31.23,9.46,39.26,1011.73,2033.00,2883.02,2932.72,3160.98,499.96,490.70,44.02,0000 0000 0000 0000 000000
2014-06-19 11:14:35,0.05,1.38,0.00,25.09,28.96,31.26,9.53,39.17,1011.71,2032.99,2882.56,2932.04,3160.48,500.24,490.96,44.06,0000 0000 0000 0000 000000
2014-06-19 11:19:36,0.00,1.38,0.00,25.10,28.98,31.28,9.45,38.97,1011.68,2032.94,2882.01,2931.97,3160.00,500.10,491.02,44.10,0000 0000 0000 0000 000000
2014-06-19 11:24:38,-0.01,1.38,0.00,25.13,29.01,31.32,9.49,38.98,1011.63,2032.59,2881.60,2931.32,3159.66,500.20,490.98,44.14,0000 0000 0000 0000 000000
2014-06-19 11:29:39,-0.02,1.38,0.00,25.17,29.03,31.34,9.52,39.05,1011.46,2032.10,2881.04,2931.00,3159.04,500.47,491.15,44.19,0000 0000 0000 0000 000000
2014-06-19 11:34:40,0.06,1.38,0.00,25.21,29.06,31.37,9.41,38.89,1011.45,2032.01,2880.36,2930.53,3158.55,499.95,490.46,44.23,0000 0000 0000 0000 000000
2014-06-19 11:39:41,0.01,1.38,0.00,25.25,29.08,31.40,9.36,38.63,1011.58,2032.00,2879.90,2930.02,3158.01,499.55,490.05,44.27,0000 0000 0000 0000 000000
2014-06-19 11:44:42,0.01,1.39,0.00,25.26,29.10,31.44,9.42,38.57,1011.57,2032.00,2879.16,2929.99,3157.92,499.80,490.59,44.31,0000 0000 0000 0000 000000
2014-06-19 11:49:43,0.04,1.39,0.00,25.28,29.12,31.46,9.43,38.59,1011.55,2032.00,2879.02,2929.59,3157.28,499.97,490.43,44.35,0000 0000 0000 0000 000000
2014-06-19 11:54:44,0.01,1.39,0.00,25.27,29.15,31.50,9.41,38.53,1011.61,2032.00,2879.00,2929.04,3157.01,500.23,490.87,44.39,0000 0000 0000 0000 000000
2014-06-19 11:59:45,0.02,1.39,0.00,25.26,29.16,31.52,9.41,38.78,1011.54,2031.99,2878.63,2928.98,3156.79,499.76,490.21,44.44,0000 0000 0000 0000 000000
2014-06-19 12:04:46,0.03,1.39,0.00,25.24,29.19,31.55,9.39,38.52,1011.56,2031.94,2878.08,2928.55,3156.13,499.78,490.33,44.48,0000 0000 0000 0000 000000
2014-06-19 12:09:47,-0.06,1.39,0.00,25.23,29.20,31.57,9.48,38.95,1011.60,2031.48,2877.99,2928.06,3155.98,500.05,490.42,44.52,0000 0000 0000 0000 000000
2014-06-19 12:14:48,-0.01,1.39,0.00,25.22,29.22,31.60,9.47,38.93,1011.69,2031.05,2877.95,2927.96,3155.52,500.47,491.03,44.56,0000 0000 0000 0000 000000
2014-06-19 12:19:50,0.03,1.39,0.00,25.22,29.24,31.62,9.43,38.88,1011.72,2031.02,2877.59,2927.64,3155.06,500.21,490.84,44.60,0000 0000 0000 0000 000000
2014-06-19 12:24:51,0.02,1.39,0.00,25.20,29.25,31.64,9.59,39.13,1011.72,2031.00,2877.01,2927.05,3155.00,500.72,491.36,44.64,0000 0000 0000 0000 000000
2014-06-19 12:29:52,0.01,1.39,0.00,25.21,29.27,31.66,9.56,39.27,1011.71,2031.00,2876.85,2927.00,3154.84,500.45,491.04,44.68,0000 0000 0000 0000 000000
2014-06-19 12:34:53,0.04,1.39,0.00,25.20,29.27,31.67,9.38,39.25,1011.70,2031.00,2876.09,2926.78,3154.14,499.88,490.56,44.73,0000 0000 0000 0000 000000
2014-06-19 12:39:54,0.02,1.39,0.00,25.20,29.29,31.68,9.53,39.32,1011.65,2031.00,2875.98,2926.15,3153.99,499.96,490.50,44.77,0000 0000 0000 0000 000000
2014-06-19 12:44:55,0.02,1.39,0.00,25.21,29.30,31.69,9.45,39.21,1011.41,2030.98,2875.46,2926.01,3153.86,500.32,490.80,44.81,0000 0000 0000 0000 000000
2014-06-19 12:49:56,0.01,1.39,0.00,25.20,29.31,31.70,9.41,39.13,1011.41,2030.95,2875.00,2925.99,3153.15,499.43,489.87,44.85,0000 0000 0000 0000 000000
2014-06-19 12:54:58,0.04,1.40,0.00,25.22,29.32,31.71,9.54,39.19,1011.28,2030.96,2874.48,2925.62,3153.00,500.44,490.81,44.89,0000 0000 0000 0000 000000
2014-06-19 12:59:59,0.01,1.40,0.00,25.20,29.33,31.73,9.50,39.25,1011.29,2030.90,2874.01,2925.05,3152.75,499.75,489.96,44.93,0000 0000 0000 0000 000000